Regional Weather Roundup
Issued by NWS

Home | Current Version | Previous Version | Text Only | Print | Product List | Glossary Off
Versions: 1 2 3 4 5 6 7 8 9 10 11 12 13 14 15 16 17 18 19 20 21 22 23 24 25 26 27 28 29 30 31 32 33 34 35 36 37 38 39 40 41 42 43 44 45 46 47 48 49 50

000
ASUS43 KFSD 230310
RWRSD

WEATHER ROUNDUP FOR SOUTH DAKOTA
NATIONAL WEATHER SERVICE SIOUX FALLS SD
900 PM CST MON DEC 22 2014

NOTE: "FAIR" INDICATES FEW OR NO CLOUDS BELOW 12,000 FEET WITH NO
SIGNIFICANT WEATHER AND/OR OBSTRUCTIONS TO VISIBILITY.


SDZ001>005-009-010-012>017-230400-
NORTHWEST AND NORTH CENTRAL SOUTH DAKOTA

CITY           SKY/WX    TMP DP  RH WIND       PRES   REMARKS
BUFFALO          N/A     24  19  81 NW26G37   29.69R WCI   8
FAITH            N/A     25  20  81 NW29G40   29.69R WCI   8
MOBRIDGE       LGT SNOW  32  29  88 N21G28    29.58R FOG     WCI  20
$$

SDZ012>016-024>037-041>051-057-063-072>074-230400-
SOUTHWEST AND SOUTH CENTRAL SOUTH DAKOTA

CITY           SKY/WX    TMP DP  RH WIND       PRES   REMARKS
RAPID CTY ARPT LGT SNOW  30  26  85 N32G44    29.67R VSB 1   WCI  14
PIERRE         FLURRIES  31  28  89 MISG      29.57R
CUSTER         MIX PCPN  25  16  68 NW15G37   29.59R WCI  13
PHILIP         LGT SNOW  28  23  81 NW26G36   29.66R WCI  13
PINE RIDGE     LGT SNOW  29  26  89 N17       29.68R VSB 3/4 WCI  17
SPEARFISH      LGT RAIN  28  25  86 NW21G35   29.77R WCI  15
WINNER         CLOUDY    31  27  85 NW23G31   29.54S WCI  18
$$

SDZ004>011-016>023-039-040-230400-
NORTHEAST SOUTH DAKOTA

CITY           SKY/WX    TMP DP  RH WIND       PRES   REMARKS
ABERDEEN       LGT RAIN  35  33  92 NE12      29.55R WCI  27
WATERTOWN      CLOUDY    34  33  96 E10       29.51R FOG     WCI  26
SISSETON         N/A     33  33 100 E9        29.58R WCI  25
$$

SDZ017-020-022-023-036>040-048>070-230400-
SOUTHEAST SOUTH DAKOTA

CITY           SKY/WX    TMP DP  RH WIND       PRES   REMARKS
SIOUX FALLS    LGT RAIN  37  35  92 E12       29.47R
HURON          FOG       32  32 100 NW5       29.50R VSB 1/4 WCI  27
CHAMBERLAIN    CLOUDY    31  29  92 NW18G24   29.52S WCI  19
MITCHELL         N/A     34  33  96 MISG      29.51R
YANKTON        MOCLDY    36  32  87 NW9       29.49S
$$

ABBREVIATIONS USED IN REMARKS
   TC - TEMPERATURE IN CELSIUS
  WCI - WIND CHILL INDEX
   HX - HEAT INDEX
  VSB - VISIBILITY



USA.gov is the U.S. government's official web portal to all federal, state and local government web resources and services.